Stations météo

Publicité
London/Heathrow Intl, Grande-Bretagne (3772): Température de l'air & dewpoint: 01.07.2020 12:00:00 - 07.07.2020 12:00:00 (BST)London/Heathrow Intl, Grande-Bretagne (3772): Vitesse du vent & gusts: 01.07.2020 12:00:00 - 07.07.2020 12:00:00 (BST)London/Heathrow Intl, Grande-Bretagne (3772): Direction du vent: 01.07.2020 12:00:00 - 07.07.2020 12:00:00 (BST)London/Heathrow Intl, Grande-Bretagne (3772): reduced air pressure: 01.07.2020 12:00:00 - 07.07.2020 12:00:00 (BST)London/Heathrow Intl, Grande-Bretagne (3772): visibility: 01.07.2020 12:00:00 - 07.07.2020 12:00:00 (BST)London/Heathrow Intl, Grande-Bretagne (3772): Ensoleillement: 01.07.2020 12:00:00 - 07.07.2020 12:00:00 (BST)London/Heathrow Intl, Grande-Bretagne (3772): Quantités de précipitations: 01.07.2020 12:00:00 - 07.07.2020 12:00:00 (BST)
Date & Time tt [°C] td [°C] ff [km/h] ff [knt] fx [km/h] fx [knt] dd ppp [hPa] vv [km] sd [min] rr [mm]
07.07.2020 12:00:00 20,4 7,7 18 10 - - WSW 1020,2 10 0 0,0
07.07.2020 11:00:00 19,3 7,5 18 10 - - SW 1020,7 30 30 0,0
07.07.2020 10:00:00 19,0 9,2 16 9 - - W 1021,2 10 54 0,0
07.07.2020 09:00:00 18,1 9,4 13 7 - - WSW 1021,5 10 60 0,0
07.07.2020 08:00:00 16,2 8,9 9 5 - - WSW 1021,7 5 60 0,0
07.07.2020 07:00:00 13,7 8,3 11 6 - - W 1022,0 27 18 0,0
07.07.2020 06:00:00 11,9 8,2 8 4 - - W 1022,3 26 0 0,0
07.07.2020 05:00:00 11,4 7,6 5 3 - - WSW 1022,2 26 0 0,0
07.07.2020 04:00:00 12,4 6,5 8 4 - - WNW 1022,4 10 0 0,0
07.07.2020 03:00:00 11,9 6,7 5 3 - - WNW 1023,0 10 0 0,0
07.07.2020 02:00:00 11,6 5,8 2 1 - - SW 1023,1 28 0 0,0
07.07.2020 01:00:00 12,6 6,1 2 1 - - - 1023,4 10 - 0,0
07.07.2020 00:00:00 13,1 5,8 2 1 - - - 1023,4 10 0 0,0
06.07.2020 23:00:00 14,7 5,5 4 2 - - - 1023,4 10 0 0,0
06.07.2020 22:00:00 16,2 5,3 4 2 - - - 1023,0 10 0 0,0
06.07.2020 21:00:00 18,2 6,8 9 5 - - NW 1022,3 10 0 0,0
06.07.2020 20:00:00 19,2 6,9 13 7 - - WNW 1021,9 26 48 0,0
06.07.2020 19:00:00 19,1 7,8 9 5 - - NW 1021,8 10 12 0,0
06.07.2020 18:00:00 19,1 7,5 13 7 - - NW 1021,6 30 0 0,0
06.07.2020 17:00:00 19,2 7,7 16 9 - - NW 1021,6 27 0 0,0
06.07.2020 16:00:00 19,3 8,0 15 8 - - WNW 1021,3 10 18 0,0
06.07.2020 15:00:00 18,5 8,0 18 10 - - W 1021,1 25 0 0,0
06.07.2020 14:00:00 17,8 7,3 18 10 - - W 1020,9 24 0 0,0
06.07.2020 13:00:00 17,7 6,7 21 11 - - WNW 1020,3 23 6 0,0
06.07.2020 12:00:00 17,1 6,9 22 12 - - W 1019,6 10 0 0,0
06.07.2020 11:00:00 16,7 6,6 26 14 - - W 1019,0 10 18 0,0
06.07.2020 10:00:00 16,9 7,3 24 13 - - WNW 1018,4 10 30 0,0
06.07.2020 09:00:00 16,2 7,9 24 13 - - W 1018,0 10 54 0,0
06.07.2020 08:00:00 14,9 8,1 26 14 - - W 1017,4 10 60 0,0
06.07.2020 07:00:00 13,2 8,6 22 12 - - W 1016,9 10 6 0,0
06.07.2020 06:00:00 12,2 8,5 18 10 - - W 1016,4 10 0 0,0
06.07.2020 05:00:00 11,5 8,2 16 9 - - WSW 1015,9 10 0 0,0
06.07.2020 04:00:00 11,9 8,5 21 11 - - WSW 1015,3 11 0 0,0
06.07.2020 03:00:00 12,1 8,6 22 12 - - WSW 1015,0 10 0 0,0
06.07.2020 02:00:00 12,5 8,7 21 11 - - WSW 1015,1 8 0 0,0
06.07.2020 01:00:00 13,1 8,5 22 12 - - W 1014,9 10 - 0,0
06.07.2020 00:00:00 13,6 8,2 29 16 52 28 W 1014,2 10 0 0,0
05.07.2020 23:00:00 14,1 7,9 34 18 52 28 WSW 1014,0 9 0 0,0
05.07.2020 22:00:00 14,8 7,4 34 18 54 29 W 1013,7 10 0 0,0
05.07.2020 21:00:00 15,9 6,3 31 17 57 31 W 1013,2 8 6 0,0
05.07.2020 20:00:00 17,4 5,3 39 21 63 34 WSW 1012,7 9 60 0,0
05.07.2020 19:00:00 18,9 5,5 42 23 61 33 W 1012,5 10 30 0,0
05.07.2020 18:00:00 20,3 6,1 37 20 63 34 W 1012,1 10 42 0,0
05.07.2020 17:00:00 20,0 6,0 44 24 63 34 W 1012,1 29 30 0,0
05.07.2020 16:00:00 21,3 6,5 44 24 61 33 W 1012,2 10 42 0,0
05.07.2020 15:00:00 20,5 5,8 39 21 63 34 W 1011,8 25 54 0,0
05.07.2020 14:00:00 21,5 6,6 41 22 59 32 W 1011,6 27 60 0,0
05.07.2020 13:00:00 22,2 7,2 41 22 55 30 W 1011,2 10 54 0,0
05.07.2020 12:00:00 21,3 8,2 42 23 61 33 W 1010,8 10 54 0,0
05.07.2020 11:00:00 21,0 8,9 41 22 61 33 W 1010,4 10 60 0,0
05.07.2020 10:00:00 18,3 9,4 39 21 57 31 W 1010,4 10 24 0,0
05.07.2020 09:00:00 20,0 12,4 35 19 61 33 W 1009,8 10 24 0,0
05.07.2020 08:00:00 18,5 13,9 29 16 - - W 1009,1 10 12 0,0
05.07.2020 07:00:00 17,5 14,6 31 17 48 26 SW 1008,6 30 0 0,0
05.07.2020 06:00:00 17,0 14,5 31 17 50 27 SW 1008,3 10 0 0,0
05.07.2020 05:00:00 17,1 14,5 31 17 54 29 SW 1008,5 30 0 0,0
05.07.2020 04:00:00 17,1 14,8 31 17 50 27 SW 1008,4 30 0 0,0
05.07.2020 03:00:00 16,9 14,7 28 15 50 27 SW 1008,5 10 0 0,0
05.07.2020 02:00:00 17,0 14,4 29 16 46 25 SW 1009,4 10 0 0,0
05.07.2020 01:00:00 17,3 14,7 24 13 - - SSW 1010,0 10 - 0,0
05.07.2020 00:00:00 17,9 15,1 26 14 - - SW 1010,2 10 0 0,0
04.07.2020 23:00:00 17,7 15,4 22 12 - - SSW 1010,5 21 0 0,0
04.07.2020 22:00:00 18,0 15,6 28 15 - - SW 1010,6 10 0 0,0
04.07.2020 21:00:00 17,7 15,9 24 13 - - SW 1010,3 10 0 0,0
04.07.2020 20:00:00 18,1 15,8 21 11 - - SW 1010,4 10 0 0,0
04.07.2020 19:00:00 19,2 15,5 24 13 46 25 SW 1010,3 10 0 0,0
04.07.2020 18:00:00 18,9 15,6 29 16 48 26 SW 1010,4 23 0 0,0
04.07.2020 17:00:00 19,4 15,6 28 15 - - SSW 1010,3 28 0 0,0
04.07.2020 16:00:00 20,5 15,6 28 15 - - SW 1010,3 10 0 0,0
04.07.2020 15:00:00 20,2 15,7 24 13 - - SSW 1010,4 10 0 0,0
04.07.2020 14:00:00 20,3 15,2 31 17 - - SW 1010,9 35 0 0,0
04.07.2020 13:00:00 19,9 15,4 26 14 - - SW 1010,7 30 0 0,0
04.07.2020 12:00:00 19,2 14,7 29 16 48 26 WSW 1011,0 10 0 0,0
04.07.2020 11:00:00 19,8 15,2 26 14 46 25 SW 1010,7 10 0 0,0
04.07.2020 10:00:00 19,1 15,2 26 14 46 25 WSW 1010,5 10 6 0,0
04.07.2020 09:00:00 18,2 15,6 24 13 - - SW 1010,7 10 0 0,0
04.07.2020 08:00:00 17,1 15,3 22 12 - - SW 1010,9 40 0 0,0
04.07.2020 07:00:00 16,6 15,1 24 13 - - SW 1010,8 10 0 0,0
04.07.2020 06:00:00 15,9 14,9 18 10 - - SW 1010,9 10 0 0,2
04.07.2020 05:00:00 15,4 14,7 22 12 - - SSW 1011,3 10 0 0,4
04.07.2020 04:00:00 15,3 14,3 26 14 - - SSW 1011,5 2,7 0 0,2
04.07.2020 03:00:00 15,3 14,2 21 11 - - SW 1012,3 10 0 0,0
04.07.2020 02:00:00 15,3 14,0 26 14 48 26 SW 1012,8 9 0 0,0
04.07.2020 01:00:00 15,4 13,5 26 14 - - SW 1013,1 10 - 0,0
04.07.2020 00:00:00 15,2 13,3 28 15 - - SW 1013,8 10 0 0,0
03.07.2020 23:00:00 14,8 13,3 26 14 - - SSW 1014,1 17 0 0,4
03.07.2020 22:00:00 14,7 13,1 24 13 - - SW 1014,7 10 0 0,6
03.07.2020 21:00:00 14,6 13,0 26 14 - - SW 1014,6 4,1 0 0,8
03.07.2020 20:00:00 15,2 12,9 28 15 46 25 SW 1015,0 10 0 0,4
03.07.2020 19:00:00 16,9 11,5 31 17 52 28 SW 1015,1 10 0 0,0
03.07.2020 18:00:00 19,6 9,6 35 19 54 29 SW 1014,8 10 0 0,0
03.07.2020 17:00:00 19,9 9,6 31 17 48 26 SW 1015,0 10 0 0,0
03.07.2020 16:00:00 20,6 9,5 31 17 48 26 SSW 1015,1 28 12 0,0
03.07.2020 15:00:00 21,7 10,5 34 18 48 26 SW 1015,4 25 30 0,0
03.07.2020 14:00:00 22,4 10,5 34 18 50 27 SW 1015,6 30 24 0,0
03.07.2020 13:00:00 21,4 9,3 34 18 46 25 SW 1016,1 10 30 0,0
03.07.2020 12:00:00 19,9 9,0 29 16 46 25 WSW 1016,2 10 36 0,0
03.07.2020 11:00:00 18,4 8,7 28 15 48 26 WSW 1016,6 10 30 0,0
03.07.2020 10:00:00 18,8 10,3 28 15 - - WSW 1016,5 10 42 0,0
03.07.2020 09:00:00 17,0 10,0 29 16 - - WSW 1016,7 30 60 0,0
03.07.2020 08:00:00 15,4 10,9 22 12 - - SW 1016,6 30 30 0,0
03.07.2020 07:00:00 13,2 10,7 16 9 - - SW 1016,8 29 0 0,0
03.07.2020 06:00:00 12,3 10,7 13 7 - - SW 1017,0 6 0 0,0
03.07.2020 05:00:00 12,3 10,5 13 7 - - WSW 1016,7 26 0 0,0
03.07.2020 04:00:00 12,2 10,9 15 8 - - WSW 1016,4 10 0 0,0
03.07.2020 03:00:00 12,8 11,3 16 9 - - W 1016,4 10 0 0,0
03.07.2020 02:00:00 14,0 12,1 15 8 - - W 1016,0 10 0 0,0
03.07.2020 01:00:00 15,1 13,2 15 8 - - W 1015,8 10 - 0,0
03.07.2020 00:00:00 16,7 13,8 13 7 - - W 1015,7 30 0 0,0
02.07.2020 23:00:00 17,4 12,7 11 6 - - W 1015,4 35 0 0,0
02.07.2020 22:00:00 17,7 12,2 11 6 - - W 1015,0 10 0 0,0
02.07.2020 21:00:00 18,0 12,4 13 7 - - W 1014,4 10 0 0,0
02.07.2020 20:00:00 19,2 12,2 21 11 - - W 1013,9 40 30 0,0
02.07.2020 19:00:00 20,8 12,3 22 12 - - W 1013,1 40 24 0,0
02.07.2020 18:00:00 21,0 10,7 24 13 - - W 1012,5 40 54 0,0
02.07.2020 17:00:00 21,7 13,1 24 13 - - WSW 1012,0 10 60 0,0
02.07.2020 16:00:00 19,8 13,0 18 10 - - W 1012,0 50 6 0,0
02.07.2020 15:00:00 17,7 13,9 24 13 - - W 1011,8 10 24 0,0
02.07.2020 14:00:00 16,5 14,6 21 11 - - W 1011,7 10 12 0,6
02.07.2020 13:00:00 15,7 14,2 16 9 - - W 1011,2 10 6 1,6
02.07.2020 12:00:00 19,5 14,5 21 11 - - W 1010,8 10 18 0,2
02.07.2020 11:00:00 18,3 11,5 22 12 - - WSW 1010,4 10 6 0,0
02.07.2020 10:00:00 16,0 12,0 21 11 - - WSW 1010,4 10 0 0,0
02.07.2020 09:00:00 15,9 11,5 21 11 - - WSW 1010,0 35 6 0,0
02.07.2020 08:00:00 15,8 11,2 16 9 - - WSW 1009,7 10 60 0,0
02.07.2020 07:00:00 13,7 11,0 15 8 - - SW 1009,5 10 24 0,0
02.07.2020 06:00:00 12,2 10,2 13 7 - - SW 1009,3 30 0 0,0
02.07.2020 05:00:00 12,1 10,4 13 7 - - WSW 1009,3 10 0 0,0
02.07.2020 04:00:00 12,3 10,3 16 9 - - WSW 1009,0 10 0 0,0
02.07.2020 03:00:00 12,6 10,2 13 7 - - SW 1008,9 30 0 0,0
02.07.2020 02:00:00 13,2 9,7 15 8 - - WSW 1008,9 10 0 0,0
02.07.2020 01:00:00 14,9 9,7 16 9 - - W 1008,6 10 - 0,0
02.07.2020 00:00:00 15,6 13,2 15 8 - - WSW 1008,3 10 0 0,0
01.07.2020 23:00:00 15,9 13,4 16 9 - - SW 1008,0 30 0 0,0
01.07.2020 22:00:00 16,1 13,2 15 8 - - SW 1007,7 10 0 0,0
01.07.2020 21:00:00 16,3 13,1 13 7 - - WSW 1007,4 40 0 0,0
01.07.2020 20:00:00 16,8 13,6 22 12 - - W 1007,3 30 0 0,0
01.07.2020 19:00:00 18,2 12,9 22 12 - - SW 1006,8 40 0 0,0
01.07.2020 18:00:00 18,9 12,7 24 13 - - SW 1006,6 45 0 0,0
01.07.2020 17:00:00 19,0 13,3 24 13 - - WSW 1006,3 10 0 0,0
01.07.2020 16:00:00 18,8 14,8 21 11 - - SW 1006,1 10 0 0,2
01.07.2020 15:00:00 18,3 16,7 18 10 - - W 1005,8 30 6 1,2
01.07.2020 14:00:00 20,3 17,0 15 8 - - WSW 1005,5 35 18 0,2
01.07.2020 13:00:00 18,1 14,6 24 13 46 25 WSW 1005,4 35 6 0,4
01.07.2020 12:00:00 20,8 12,0 22 12 - - WSW 1005,1 35 18 0,0

tt = Température de l'air
td = dewpoint
ff = Vitesse du vent
fx = gusts
dd = Direction du vent
ppp = reduced air pressure
vv = visibility
sd = Ensoleillement
rr = Quantités de précipitations

stations d'obs. à proximité